DW6494 Weather Reports


Display with metric or nautical units.
time (UTC)temp
F
wind
direction
speed
MPH
gust
MPH
rain 1hr
in
rain 24hr
in
rain mn
in
humidity
%
barometer
mb
20260506062032 51 0 0.0 0.0 0.00 0.00 0.00 62 1011.0
20260506061529 52 95 4.0 5.0 0.00 0.00 0.00 61 1011.0
20260506061031 52 127 4.0 4.0 0.00 0.00 0.00 60 1011.0
20260506060531 52 66 3.0 3.0 0.00 0.00 0.00 60 1011.0
20260506051031 48 55 4.0 5.0 0.00 0.00 0.00 67 1010.0
20260506050530 48 63 5.0 7.0 0.00 0.00 0.00 67 1010.0
20260506045029 48 116 1.0 4.0 0.00 0.00 0.00 67 1010.0
20260506044530 48 59 4.0 4.0 0.00 0.00 0.00 68 1010.0
20260506044029 49 89 4.0 6.0 0.00 0.00 0.00 68 1010.0
20260506043531 49 89 0.0 0.0 0.00 0.00 0.00 66 1010.0
20260506043033 49 96 0.0 1.0 0.00 0.00 0.00 66 1010.0
20260506042530 49 87 4.0 4.0 0.00 0.00 0.00 65 1010.0
20260506042032 50 82 1.0 4.0 0.00 0.00 0.00 65 1010.0
20260506041531 50 110 4.0 4.0 0.00 0.00 0.00 65 1010.0
20260506041029 50 74 5.0 7.0 0.00 0.00 0.00 64 1010.0
20260506040530 50 63 6.0 7.0 0.00 0.00 0.00 64 1010.0
20260506040032 50 66 5.0 5.0 0.00 0.00 0.00 65 1010.0
20260506035530 50 63 2.0 4.0 0.00 0.00 0.00 65 1010.0
20260506035030 51 66 2.0 5.0 0.00 0.00 0.00 65 1010.0
20260506034529 51 92 4.0 5.0 0.00 0.00 0.00 64 1010.0
20260506034031 51 71 6.0 6.0 0.00 0.00 0.00 64 1010.0
20260506033529 51 56 5.0 6.0 0.00 0.00 0.00 64 1010.0
20260506033030 51 61 4.0 5.0 0.00 0.00 0.00 64 1010.0
20260506032531 51 61 5.0 6.0 0.00 0.00 0.00 64 1010.0
20260506032030 51 46 5.0 6.0 0.00 0.00 0.00 64 1010.0
20260506031531 51 60 4.0 4.0 0.00 0.00 0.00 64 1010.0
20260506031032 51 59 4.0 5.0 0.00 0.00 0.00 64 1010.0
20260506030531 51 55 4.0 6.0 0.00 0.00 0.00 64 1010.0
20260506030031 51 72 5.0 6.0 0.00 0.00 0.00 64 1010.0
20260506025530 52 75 5.0 6.0 0.00 0.00 0.00 64 1010.0
20260506025029 52 65 3.0 4.0 0.00 0.00 0.00 64 1010.0
20260506024531 53 79 3.0 4.0 0.00 0.00 0.00 64 1010.0
20260506024032 53 69 4.0 4.0 0.00 0.00 0.00 64 1010.0
20260506023529 53 68 2.0 3.0 0.00 0.00 0.00 63 1010.0
20260506023029 54 103 2.0 4.0 0.00 0.00 0.00 62 1010.0
20260506022531 54 109 2.0 3.0 0.00 0.00 0.00 62 1010.0
20260506022030 54 123 0.0 2.0 0.00 0.00 0.00 62 1009.0
20260506021530 55 152 2.0 3.0 0.00 0.00 0.00 61 1009.0
20260506021030 55 128 5.0 6.0 0.00 0.00 0.00 61 1009.0
20260506020532 56 116 0.0 0.0 0.00 0.00 0.00 59 1009.0
20260506020030 56 0 0.0 0.0 0.00 0.00 0.00 59 1009.0
20260506015529 57 117 1.0 3.0 0.00 0.00 0.00 57 1009.0
20260506015030 57 134 3.0 5.0 0.00 0.00 0.00 55 1009.0
20260506014531 58 100 3.0 5.0 0.00 0.00 0.00 53 1009.0
20260506014030 58 62 2.0 3.0 0.00 0.00 0.00 53 1009.0
20260506013529 58 64 2.0 4.0 0.00 0.00 0.00 52 1009.0
20260506013029 59 57 2.0 5.0 0.00 0.00 0.00 51 1009.0
20260506012531 59 63 0.0 0.0 0.00 0.00 0.00 50 1009.0
20260506012029 59 88 4.0 6.0 0.00 0.00 0.00 50 1009.0
20260506011529 59 94 4.0 7.0 0.00 0.00 0.00 49 1009.0
20260506011031 59 37 0.0 0.0 0.00 0.00 0.00 49 1009.0
20260506010531 58 107 5.0 7.0 0.00 0.00 0.00 50 1009.0
20260506010031 58 125 4.0 7.0 0.00 0.00 0.00 49 1009.0
20260506005531 59 73 3.0 5.0 0.00 0.00 0.00 48 1009.0
20260506005029 58 105 4.0 7.0 0.00 0.00 0.00 49 1009.0
20260506004531 59 129 7.0 9.0 0.00 0.00 0.00 47 1009.0
20260506003551 58 91 0.0 2.0 0.00 0.00 0.00 50 1009.0
20260506003030 58 73 4.0 10.0 0.00 0.00 0.00 51 1009.0
20260506002531 58 126 5.0 8.0 0.00 0.00 0.00 50 1009.0
20260506002031 58 96 0.0 1.0 0.00 0.00 0.00 49 1009.0
20260506001529 58 61 4.0 4.0 0.00 0.00 0.00 51 1009.0
20260506001031 57 67 2.0 4.0 0.00 0.00 0.00 51 1009.0
20260506000531 58 150 5.0 9.0 0.00 0.00 0.00 52 1009.0
20260506000030 57 115 4.0 7.0 0.00 0.00 0.00 53 1009.0
20260505235531 57 328 3.0 5.0 0.00 0.00 0.00 52 1009.0
20260505235031 57 175 0.0 0.0 0.00 0.00 0.00 53 1009.0
20260505234530 57 86 5.0 6.0 0.00 0.00 0.00 52 1009.0
20260505234031 57 51 1.0 3.0 0.00 0.00 0.00 52 1009.0
20260505233531 56 144 1.0 3.0 0.00 0.00 0.00 52 1009.0
20260505233029 57 89 1.0 3.0 0.00 0.00 0.00 53 1009.0
20260505232529 57 77 1.0 2.0 0.00 0.00 0.00 54 1009.0
20260505232031 56 67 4.0 6.0 0.00 0.00 0.00 54 1009.0
20260505231530 56 139 4.0 6.0 0.00 0.00 0.00 51 1009.0
20260505231030 56 60 4.0 4.0 0.00 0.00 0.00 55 1009.0
20260505230531 55 110 2.0 4.0 0.00 0.00 0.00 54 1009.0
20260505230030 56 126 2.0 3.0 0.00 0.00 0.00 53 1009.0
20260505225536 56 11 1.0 4.0 0.00 0.00 0.00 55 1009.0
20260505225029 55 14 1.0 4.0 0.00 0.00 0.00 58 1009.0
20260505224530 55 295 0.0 2.0 0.00 0.00 0.00 56 1010.0
20260505224029 55 112 0.0 0.0 0.00 0.00 0.00 55 1010.0
20260505223529 55 95 4.0 4.0 0.00 0.00 0.00 53 1010.0
20260505223031 55 81 0.0 0.0 0.00 0.00 0.00 57 1010.0
20260505222530 55 0 0.0 0.0 0.00 0.00 0.00 57 1010.0
20260505222031 55 102 2.0 3.0 0.00 0.00 0.00 53 1010.0
20260505221531 56 12 6.0 6.0 0.00 0.00 0.00 53 1010.0
20260505221030 55 0 0.0 0.0 0.00 0.00 0.00 54 1010.0
20260505220531 55 304 4.0 5.0 0.00 0.00 0.00 49 1010.0
20260505220032 55 317 0.0 3.0 0.00 0.00 0.00 50 1010.0
20260505215531 55 74 0.0 0.0 0.00 0.00 0.00 49 1010.0
20260505215031 55 0 0.0 0.0 0.00 0.00 0.00 50 1010.0
20260505214530 55 151 4.0 4.0 0.00 0.00 0.00 50 1010.0
20260505214029 55 116 0.0 1.0 0.00 0.00 0.00 52 1010.0
20260505213531 55 74 3.0 4.0 0.00 0.00 0.00 51 1010.0
20260505213029 55 123 0.0 0.0 0.00 0.00 0.00 50 1010.0
20260505212531 55 123 0.0 2.0 0.00 0.00 0.00 49 1010.0
20260505212031 55 152 2.0 4.0 0.00 0.00 0.00 49 1010.0
20260505211531 55 105 1.0 2.0 0.00 0.00 0.00 49 1010.0
20260505211032 55 114 2.0 3.0 0.00 0.00 0.00 49 1010.0
20260505210534 55 76 2.0 4.0 0.00 0.00 0.00 51 1010.0
20260505210032 55 120 2.0 4.0 0.00 0.00 0.00 51 1010.0
20260505205531 55 83 4.0 5.0 0.00 0.00 0.00 49 1010.0
20260505205031 55 141 4.0 5.0 0.00 0.00 0.00 49 1010.0
20260505204531 55 129 2.0 5.0 0.00 0.00 0.00 50 1010.0
20260505204033 55 112 3.0 5.0 0.00 0.00 0.00 51 1010.0
20260505203531 55 115 2.0 4.0 0.00 0.00 0.00 50 1010.0
20260505203031 55 103 3.0 6.0 0.00 0.00 0.00 52 1010.0
20260505202531 55 150 8.0 13.0 0.00 0.00 0.00 51 1010.0
20260505202031 54 105 3.0 6.0 0.00 0.00 0.00 53 1010.0
20260505201530 54 75 1.0 4.0 0.00 0.00 0.00 53 1010.0
20260505201031 54 160 1.0 4.0 0.00 0.00 0.00 53 1010.0
20260505200534 54 113 8.0 12.0 0.00 0.00 0.00 52 1010.0
20260505200033 54 135 7.0 9.0 0.00 0.00 0.00 52 1010.0
20260505195531 54 98 6.0 8.0 0.00 0.00 0.00 54 1010.0
20260505195033 53 103 5.0 8.0 0.00 0.00 0.00 54 1010.0
20260505194531 53 139 10.0 15.0 0.00 0.00 0.00 53 1010.0
20260505194034 53 116 6.0 11.0 0.00 0.00 0.00 53 1010.0
20260505193533 53 154 9.0 15.0 0.00 0.00 0.00 53 1011.0
20260505193031 53 86 3.0 6.0 0.00 0.00 0.00 55 1011.0
20260505192530 53 86 6.0 8.0 0.00 0.00 0.00 54 1011.0
20260505192029 53 109 7.0 11.0 0.00 0.00 0.00 55 1011.0
20260505191531 53 138 8.0 9.0 0.00 0.00 0.00 55 1011.0
20260505191033 53 98 2.0 6.0 0.00 0.00 0.00 53 1011.0
20260505190532 53 124 7.0 11.0 0.00 0.00 0.00 55 1011.0
20260505190029 53 140 8.0 11.0 0.00 0.00 0.00 56 1011.0
20260505185531 53 149 8.0 13.0 0.00 0.00 0.00 56 1011.0
20260505185032 52 84 8.0 14.0 0.00 0.00 0.00 58 1011.0
20260505184532 52 133 12.0 14.0 0.00 0.00 0.00 57 1011.0
20260505184032 52 137 4.0 8.0 0.00 0.00 0.00 57 1011.0
20260505183531 52 108 6.0 11.0 0.00 0.00 0.00 58 1011.0
20260505183031 51 112 8.0 11.0 0.00 0.00 0.00 58 1011.0
20260505182533 51 81 8.0 10.0 0.00 0.00 0.00 59 1011.0
20260505182031 51 129 14.0 18.0 0.00 0.00 0.00 59 1011.0
20260505181532 51 126 9.0 11.0 0.00 0.00 0.00 59 1011.0
20260505181032 51 114 9.0 12.0 0.00 0.00 0.00 60 1011.0
20260505180533 51 122 8.0 11.0 0.00 0.00 0.00 59 1011.0
20260505180031 51 132 8.0 10.0 0.00 0.00 0.00 60 1011.0
20260505175529 51 102 8.0 12.0 0.00 0.00 0.00 59 1011.0
20260505175032 51 120 6.0 7.0 0.00 0.00 0.00 59 1011.0
20260505174534 51 126 9.0 14.0 0.00 0.00 0.00 60 1011.0
20260505174029 51 143 13.0 16.0 0.00 0.00 0.00 59 1011.0
20260505173531 50 130 9.0 12.0 0.00 0.00 0.00 60 1011.0
20260505173030 50 142 12.0 17.0 0.00 0.00 0.00 60 1011.0
20260505172531 50 124 12.0 17.0 0.00 0.00 0.00 61 1011.0
20260505172031 50 139 9.0 13.0 0.00 0.00 0.00 63 1011.0
20260505171531 50 121 7.0 9.0 0.00 0.00 0.00 62 1011.0
20260505171033 50 131 9.0 11.0 0.00 0.00 0.00 62 1011.0
20260505170532 50 96 8.0 13.0 0.00 0.00 0.00 63 1011.0
20260505170031 50 114 11.0 15.0 0.00 0.00 0.00 62 1011.0
20260505165533 49 122 7.0 10.0 0.00 0.00 0.00 62 1011.0
20260505165034 49 145 9.0 15.0 0.00 0.00 0.00 63 1011.0
20260505164532 49 142 14.0 19.0 0.00 0.00 0.00 63 1011.0
20260505164033 49 130 12.0 17.0 0.00 0.00 0.00 63 1011.0
20260505163542 49 129 12.0 17.0 0.00 0.00 0.00 64 1011.0
20260505163031 49 137 8.0 11.0 0.00 0.00 0.00 65 1011.0
20260505162531 49 154 11.0 15.0 0.00 0.00 0.00 65 1011.0
20260505162031 49 137 12.0 18.0 0.00 0.00 0.00 65 1011.0
20260505161532 49 105 11.0 14.0 0.00 0.00 0.00 65 1011.0
20260505161031 49 98 9.0 17.0 0.00 0.00 0.00 65 1011.0
20260505160533 49 123 9.0 14.0 0.00 0.00 0.00 65 1011.0
20260505153029 49 132 13.0 17.0 0.00 0.00 0.00 66 1011.0
20260505152534 50 132 13.0 17.0 0.00 0.00 0.00 65 1011.0
20260505152031 50 125 10.0 12.0 0.00 0.00 0.00 65 1011.0
20260505151533 50 140 13.0 17.0 0.00 0.00 0.00 64 1011.0
20260505151034 50 143 14.0 20.0 0.00 0.00 0.00 64 1011.0
20260505150534 50 127 8.0 11.0 0.00 0.00 0.00 65 1011.0
20260505140537 51 130 9.0 12.0 0.00 0.00 0.00 62 1010.0
20260505125033 54 134 8.0 17.0 0.00 0.00 0.00 56 1009.0
20260505124533 54 131 8.0 10.0 0.00 0.00 0.00 57 1009.0
20260505124031 54 144 5.0 12.0 0.00 0.00 0.00 60 1009.0
20260505123531 54 53 1.0 4.0 0.00 0.00 0.00 58 1009.0
20260505123031 54 110 4.0 5.0 0.00 0.00 0.00 57 1009.0
20260505122530 54 77 6.0 8.0 0.00 0.00 0.00 57 1009.0
20260505122031 54 121 4.0 5.0 0.00 0.00 0.00 58 1009.0
20260505121531 54 75 4.0 4.0 0.00 0.00 0.00 61 1009.0
20260505121031 54 99 1.0 3.0 0.00 0.00 0.00 60 1009.0
20260505120532 54 95 1.0 3.0 0.00 0.00 0.00 61 1009.0
20260505120031 54 0 0.0 0.0 0.00 0.00 0.00 58 1009.0
20260505115531 54 61 2.0 3.0 0.00 0.00 0.00 58 1009.0
20260505115032 54 42 3.0 4.0 0.00 0.00 0.00 59 1009.0
20260505114532 54 41 2.0 3.0 0.00 0.00 0.00 58 1009.0
20260505114031 54 0 0.0 0.0 0.00 0.00 0.00 56 1009.0
20260505113533 54 132 0.0 2.0 0.00 0.00 0.00 55 1009.0
20260505113032 54 90 7.0 8.0 0.00 0.00 0.00 54 1009.0
20260505112533 54 98 4.0 6.0 0.00 0.00 0.00 58 1009.0
20260505112031 54 126 5.0 6.0 0.00 0.00 0.00 60 1009.0
20260505111532 53 110 6.0 9.0 0.00 0.00 0.00 62 1009.0
20260505111032 53 85 6.0 9.0 0.00 0.00 0.00 64 1009.0
20260505110531 53 94 8.0 12.0 0.00 0.00 0.00 65 1009.0
20260505102031 54 91 5.0 10.0 0.00 0.00 0.00 71 1009.0
20260505101532 54 96 6.0 9.0 0.00 0.00 0.00 72 1009.0
20260505101031 54 115 1.0 2.0 0.00 0.00 0.00 72 1009.0
20260505100529 54 115 2.0 4.0 0.00 0.00 0.00 72 1009.0
20260505100033 54 117 3.0 4.0 0.00 0.00 0.00 71 1009.0
20260505095531 54 90 2.0 4.0 0.00 0.00 0.00 72 1009.0
20260505095031 55 0 0.0 0.0 0.00 0.00 0.00 73 1009.0
20260505094532 55 0 0.0 0.0 0.00 0.00 0.00 72 1009.0
20260505094032 55 0 0.0 0.0 0.00 0.00 0.00 72 1009.0
20260505093531 55 33 0.0 1.0 0.00 0.00 0.00 72 1009.0
20260505093033 55 103 1.0 3.0 0.00 0.00 0.00 71 1009.0
20260505092531 55 135 0.0 0.0 0.00 0.00 0.00 69 1009.0
20260505092030 55 0 0.0 0.0 0.00 0.00 0.00 66 1009.0
20260505091533 55 0 0.0 0.0 0.00 0.00 0.00 64 1009.0
20260505091029 55 0 0.0 0.0 0.00 0.00 0.00 63 1009.0
20260505090530 55 106 0.0 1.0 0.00 0.00 0.00 60 1009.0
20260505090029 55 0 0.0 0.0 0.00 0.00 0.00 57 1009.0
20260505085533 55 0 0.0 0.0 0.00 0.00 0.00 57 1009.0
20260505085031 55 0 0.0 0.0 0.00 0.00 0.00 58 1009.0
20260505084531 55 1 3.0 4.0 0.00 0.00 0.00 58 1009.0
20260505084032 55 0 0.0 0.0 0.00 0.00 0.00 59 1009.0
20260505083530 55 13 0.0 0.0 0.00 0.00 0.00 59 1009.0
20260505083031 55 65 0.0 2.0 0.00 0.00 0.00 59 1009.0
20260505082530 55 0 0.0 0.0 0.00 0.00 0.00 60 1009.0
20260505082029 54 65 2.0 3.0 0.00 0.00 0.00 60 1009.0
20260505081531 54 0 0.0 0.0 0.00 0.00 0.00 62 1009.0
20260505081033 54 20 3.0 4.0 0.00 0.00 0.00 64 1009.0
20260505080530 54 25 3.0 4.0 0.00 0.00 0.00 65 1009.0
20260505080031 54 95 1.0 2.0 0.00 0.00 0.00 66 1009.0
20260505075532 54 60 0.0 0.0 0.00 0.00 0.00 67 1009.0
20260505075031 54 80 4.0 4.0 0.00 0.00 0.00 69 1009.0
20260505074531 54 34 3.0 4.0 0.00 0.00 0.00 69 1009.0
20260505074031 54 0 0.0 0.0 0.00 0.00 0.00 69 1009.0
20260505073529 54 92 5.0 6.0 0.00 0.00 0.00 68 1009.0
20260505073034 54 121 3.0 4.0 0.00 0.00 0.00 68 1009.0
20260505072529 54 103 3.0 4.0 0.00 0.00 0.00 68 1009.0
20260505072031 54 105 4.0 6.0 0.00 0.00 0.00 68 1009.0
20260505071530 54 105 3.0 5.0 0.00 0.00 0.00 67 1009.0
20260505071031 54 110 5.0 8.0 0.00 0.00 0.00 67 1009.0
20260505070530 54 147 8.0 9.0 0.00 0.00 0.00 66 1009.0
20260505070029 55 101 5.0 9.0 0.00 0.00 0.00 66 1009.0
20260505065531 55 81 5.0 7.0 0.00 0.00 0.00 65 1010.0
20260505065029 55 115 6.0 9.0 0.00 0.00 0.00 64 1010.0
20260505064531 55 146 8.0 11.0 0.00 0.00 0.00 64 1010.0
20260505064029 55 145 9.0 13.0 0.00 0.00 0.00 62 1010.0
20260505063531 56 132 13.0 17.0 0.00 0.00 0.00 61 1010.0